Overview Statistics Trail Chart Weather Telemetry Raw packets
 

This is the latest recevied weather packets stored in our database for station/object GW4003. If no packets are shown the sender has not sent any weather packets the latest 10 day(s).

<< 1 2 3 4 5 6 7 >>
Time Temp. Humidity Pressure Rain* Wind** Luminosity Snow
1788623792 27.22° C 33% 1020 hPa 0 mm - - -
1788623488 27.22° C 32% 1019.9 hPa 0 mm - - -
1788623184 26.67° C 33% 1019.9 hPa 0 mm - - -
1788622881 26.11° C 34% 1019.8 hPa 0 mm - - -
1788622577 26.11° C 34% 1019.7 hPa 0 mm - - -
1788622274 25.56° C 36% 1019.8 hPa 0 mm - - -
1788621971 25.56° C 35% 1019.9 hPa 0 mm - - -
1788621666 25.56° C 37% 1019.9 hPa 0 mm - - -
1788621362 25° C 37% 1019.9 hPa 0 mm - - -
1788621059 24.44° C 37% 1020 hPa 0 mm - - -
1788620754 23.89° C 40% 1019.9 hPa 0 mm - - -
1788620451 23.89° C 43% 1019.9 hPa 0 mm - - -
1788620147 23.89° C 42% 1019.9 hPa 0 mm - - -
1788619843 23.33° C 44% 1019.9 hPa 0 mm - - -
1788619540 22.78° C 43% 1019.8 hPa 0 mm - - -
1788619236 22.78° C 45% 1019.9 hPa 0 mm - - -
1788618933 22.22° C 46% 1020 hPa 0 mm - - -
1788618629 21.67° C 49% 1020 hPa 0 mm - - -
1788618326 20° C 53% 1020 hPa 0 mm - - -
1788618022 19.44° C 55% 1019.9 hPa 0 mm - - -
1788617718 18.89° C 57% 1019.8 hPa 0 mm - - -
1788617414 18.33° C 58% 1019.8 hPa 0 mm - - -
1788617110 18.33° C 59% 1019.7 hPa 0 mm - - -
1788616807 17.78° C 59% 1019.6 hPa 0 mm - - -
1788616503 17.78° C 59% 1019.6 hPa 0 mm - - -

* Rain latest hour (hover to see other rain measurements)
** Current wind speed in m/s (hover to see current wind gust speed)